TimeCDT,TemperatureF,Dew PointF,Humidity,Sea Level PressureIn,VisibilityMPH,Wind Direction,Wind SpeedMPH,Gust SpeedMPH,PrecipitationIn,Events,Conditions,WindDirDegrees,DateUTC
12:54 AM,62.1,37.0,39,30.02,10.0,South,12.7,-,N/A,,Clear,170,2011-10-25 05:54:00
1:54 AM,60.8,39.2,45,30.02,10.0,South,11.5,-,N/A,,Clear,170,2011-10-25 06:54:00
2:54 AM,60.1,42.1,51,30.00,10.0,South,11.5,-,N/A,,Clear,190,2011-10-25 07:54:00
3:54 AM,60.1,44.1,55,29.98,10.0,South,10.4,-,N/A,,Clear,180,2011-10-25 08:54:00
4:54 AM,59.0,46.0,62,29.96,10.0,South,13.8,-,N/A,,Clear,190,2011-10-25 09:54:00
5:54 AM,60.1,46.9,62,29.95,10.0,SSW,13.8,-,N/A,,Clear,200,2011-10-25 10:54:00
6:54 AM,60.8,48.2,63,29.95,10.0,South,12.7,-,N/A,,Clear,180,2011-10-25 11:54:00
7:54 AM,60.1,48.0,64,29.93,10.0,South,13.8,20.7,N/A,,Clear,180,2011-10-25 12:54:00
8:54 AM,64.0,48.0,56,29.92,10.0,South,16.1,-,0.00,,Partly Cloudy,190,2011-10-25 13:54:00
9:54 AM,63.0,48.0,58,29.90,10.0,South,17.3,25.3,0.02,,Scattered Clouds,190,2011-10-25 14:54:00
10:54 AM,70.0,46.0,42,29.87,10.0,South,19.6,27.6,N/A,,Clear,190,2011-10-25 15:54:00
11:54 AM,75.0,48.9,40,29.84,10.0,SW,19.6,32.2,N/A,,Clear,220,2011-10-25 16:54:00
12:54 PM,78.1,52.0,40,29.78,10.0,SSW,28.8,35.7,N/A,,Clear,200,2011-10-25 17:54:00
1:54 PM,78.8,53.6,42,29.77,10.0,SSW,19.6,29.9,N/A,,Clear,210,2011-10-25 18:54:00
2:54 PM,80.6,53.6,39,29.72,10.0,SSW,21.9,34.5,N/A,,Clear,200,2011-10-25 19:54:00
3:54 PM,79.0,54.0,42,29.70,10.0,SSW,26.5,35.7,N/A,,Clear,210,2011-10-25 20:54:00
4:54 PM,79.0,54.0,42,29.69,10.0,SSW,17.3,27.6,N/A,,Scattered Clouds,210,2011-10-25 21:54:00
5:54 PM,78.1,54.0,43,29.70,10.0,SSW,13.8,-,N/A,,Overcast,200,2011-10-25 22:54:00
6:54 PM,77.0,55.0,47,29.70,10.0,SSW,17.3,24.2,N/A,,Mostly Cloudy,200,2011-10-25 23:54:00
7:30 PM,77.0,55.4,47,29.72,10.0,SSW,19.6,26.5,N/A,Thunderstorm,Mostly Cloudy,200,2011-10-26 00:30:00
7:54 PM,75.2,55.4,50,29.72,10.0,SSW,15.0,23.0,N/A,Thunderstorm,Thunderstorm,210,2011-10-26 00:54:00
8:12 PM,75.2,55.4,50,29.73,10.0,SSW,15.0,-,N/A,,Overcast,210,2011-10-26 01:12:00
8:23 PM,73.4,59.0,61,29.73,7.0,SW,12.7,-,0.02,Rain-Thunderstorm,Thunderstorms and Rain,220,2011-10-26 01:23:00
8:54 PM,70.0,59.0,68,29.71,10.0,SSW,10.4,-,0.02,Thunderstorm,Mostly Cloudy,200,2011-10-26 01:54:00
9:01 PM,71.6,59.0,64,29.72,10.0,SSW,11.5,-,0.00,Rain,Light Rain,200,2011-10-26 02:01:00
9:21 PM,69.8,59.0,68,29.71,10.0,SSW,11.5,-,0.00,Thunderstorm,Mostly Cloudy,200,2011-10-26 02:21:00
9:54 PM,70.0,59.0,68,29.74,10.0,WNW,9.2,-,0.00,Thunderstorm,Overcast,300,2011-10-26 02:54:00
10:08 PM,71.6,57.2,60,29.75,10.0,WSW,8.1,-,N/A,,Overcast,250,2011-10-26 03:08:00
10:54 PM,68.0,57.2,68,29.75,10.0,SW,5.8,-,N/A,,Partly Cloudy,220,2011-10-26 03:54:00
11:54 PM,66.0,55.9,70,29.75,10.0,West,3.5,-,N/A,,Partly Cloudy,260,2011-10-26 04:54:00